Connexion

Benjamins

1.5KM MENNEVILLE du 26/11/17 (Reelle 1,5) Scratch
Rang Dossard Nom Prénom Temps Cat Rang Cat Ecart Ecart Cat Club Vitesse Km/h Temps au Km
1 248 LOISEL NICOLAS 00:05:17 BEM 1 00:00:00 00:00:00 - 17,035 03:31
2 250 CARON ANTOINE 00:05:28 BEM 2 00:00:11 00:00:11 - 16,463 03:39
3 192 BRAYELLE TIMEO 00:05:33 BEM 3 00:00:16 00:00:16 - 16,216 03:42
4 249 BAILLIEU AGATHON 00:05:33 BEF 1 00:00:16 00:00:00 - 16,216 03:42
5 148 LAMARE MARTIN 00:05:34 BEM 4 00:00:17 00:00:17 - 16,168 03:43
6 193 LEVEL ADRIEN 00:05:36 BEM 5 00:00:19 00:00:19 - 16,071 03:44
7 240 DEBOVE ELISE 00:05:37 BEF 2 00:00:20 00:00:04 - 16,024 03:45
8 128 DUPEND MATHIEU 00:05:45 BEM 6 00:00:28 00:00:28 DESVRES 15,652 03:50
9 234 DUSSART MARTIN 00:05:48 BEM 7 00:00:31 00:00:31 - 15,517 03:52
10 224 SORET VALENTIN 00:05:52 BEM 8 00:00:35 00:00:35 ATHLETISME CLUB OUTREAU 15,341 03:55
11 215 FALEMPIN CHARLOTTE 00:05:56 BEF 3 00:00:39 00:00:23 DESVRES 15,169 03:57
12 225 LEBON ARTHUR 00:05:56 BEM 9 00:00:39 00:00:39 AC CAPELLOIS 15,169 03:57
13 195 CHARLES-HARLE LEO 00:06:01 BEM 10 00:00:44 00:00:44 - 14,958 04:01
14 207 BONNETAUD MATHEO 00:06:03 BEM 11 00:00:46 00:00:46 DESVRES 14,876 04:02
15 200 OUTRAN ANTOINE 00:06:07 BEM 12 00:00:50 00:00:50 - 14,714 04:05
16 202 voir informatique  00:06:08 BEM 1 00:00:51 00:00:00   14,674 04:05
17 226 LEVEL PENELOPE 00:06:11 BEF 4 00:00:54 00:00:38 AC CAPELLOIS 14,555 04:07
18 223 SCOTTE CANDICE 00:06:13 BEF 5 00:00:56 00:00:40 ATHLETISME CLUB OUTREAU 14,477 04:09
19 213 DOUAY SEBASTIEN 00:06:13 BEM 13 00:00:56 00:00:56 DESVRES 14,477 04:09
20 232 DAGNEAUX LUKA 00:06:15 BEM 14 00:00:58 00:00:58 - 14,400 04:10
21 206 FOUCAUT MANON 00:06:21 BEF 6 00:01:04 00:00:48 COURIR DANS LE LUMBROIS 14,173 04:14
22 227 VASSEUR LEO 00:06:21 BEM 15 00:01:04 00:01:04 - 14,173 04:14
23 90 DESCORDES MATHIS 00:06:25 BEM 16 00:01:08 00:01:08 - 14,026 04:17
24 211 CAPDEVILA CATRINA 00:06:26 BEF 7 00:01:09 00:00:53 DESVRES 13,990 04:17
25 219 ROGER BAPTISTE 00:06:29 BEM 17 00:01:12 00:01:12 DESVRES 13,882 04:19
26 191 THOMAS ALEXANDRE 00:06:31 BEM 18 00:01:14 00:01:14 - 13,811 04:21
27 238 DELEHAYE ANGEL 00:06:31 BEM 19 00:01:14 00:01:14 - 13,811 04:21
28 204 REGNIER LAURA 00:06:32 BEF 8 00:01:15 00:00:59 BOURTHES RUNNING 13,776 04:21
29 228 BERQUEZ ZOE 00:06:32 BEF 9 00:01:15 00:00:59 - 13,776 04:21
30 203 DUMONT LEANE 00:06:35 BEF 10 00:01:18 00:01:02 BOURTHES RUNNING 13,671 04:23
31 236 LEFEVRE INES 00:06:36 BEF 11 00:01:19 00:01:03 - 13,636 04:24
32 205 REGNIER LAURINE 00:06:37 BEF 12 00:01:20 00:01:04 BOURTHES RUNNING 13,602 04:25
33 246 WATEL ETHAN 00:06:39 BEM 20 00:01:22 00:01:22 - 13,534 04:26
34 239 STASZEWSKI ROMANE 00:06:43 BEF 13 00:01:26 00:01:10 - 13,400 04:29
35 220 TASSART JULIEN 00:06:46 BEM 21 00:01:29 00:01:29 DESVRES 13,300 04:31
36 237 DOCQUOIS LEA 00:06:48 BEF 14 00:01:31 00:01:15 LE DRAPEAU 13,235 04:32
37 194 LEMAIRE NOE 00:06:58 BEM 22 00:01:41 00:01:41 - 12,919 04:39
38 241 HOUBRON EMMA 00:07:06 BEF 15 00:01:49 00:01:33 - 12,676 04:44
39 209 BROGNARD MARIE 00:07:12 BEF 16 00:01:55 00:01:39 DESVRES 12,500 04:48
40 229 DAMIENS JULIEN 00:07:15 BEM 23 00:01:58 00:01:58 - 12,414 04:50
41 197 VANPEPERSTRAETE CLARA 00:07:16 BEF 17 00:01:59 00:01:43 - 12,385 04:51
42 247 BRABANT MAXENCE 00:07:25 BEM 24 00:02:08 00:02:08 - 12,135 04:57
43 201 LARDE ZOE 00:07:26 BEF 18 00:02:09 00:01:53 - 12,108 04:57
44 208 BREBION NOA 00:07:35 BEM 25 00:02:18 00:02:18 DESVRES 11,868 05:03
45 198 DESCATOIRE THEO 00:07:35 BEM 26 00:02:18 00:02:18 ELAN FRUGEOIS 11,868 05:03
46 199 BEN ABDELHADI CHAINA 00:07:47 BEF 19 00:02:30 00:02:14 LE DRAPEAU 11,563 05:11
47 235 LASSALLE YSALINE 00:07:51 BEF 20 00:02:34 00:02:18 - 11,465 05:14
48 214 DUPEND CAMILLE 00:07:53 BEF 21 00:02:36 00:02:20 DESVRES 11,416 05:15
49 217 LEDUC JULIETTE 00:07:55 BEF 22 00:02:38 00:02:22 DESVRES 11,368 05:17
50 230 BODART CHARLOTTE 00:08:35 BEF 23 00:03:18 00:03:02 - 10,485 05:43
51 233 SCOTTE ANAELLE 00:08:37 BEF 24 00:03:20 00:03:04 - 10,445 05:45
52 216 LABONTE THOMAS 00:08:45 BEM 27 00:03:28 00:03:28 DESVRES 10,286 05:50
53 196 MERLIN JULIETTE 00:08:56 BEF 25 00:03:39 00:03:23 - 10,075 05:57